This demonstration page uses our WeatherBlox Daily Observations layout. Learn more.

Hourly Observations for September 22, 2020

Temp ( °F °C ) Dew Point ( °F °C ) Humidity (%) Winds ( mph kmh ) Pressure ( in mb ) Visibility ( mi km ) Precip ( " mm )
12:15 am 00:15 Clear 63 17.2 54 12 72 72 S 9 15 30.05 1018 10 16.0934 0 0
12:35 am 00:35 Clear 63 17.2 54 12 72 72 S 7 11 30.05 1018 10 16.0934 0 0
12:55 am 00:55 Clear 63 17 54 12.1 73 73 S 9 15 30.05 1018 10 16.0934 0 0
1:15 am 01:15 Clear 62 16.8 54 12.1 74 74 S 8 13 30.04 1017 10 16.0934 0 0
1:35 am 01:35 Clear 61 16.3 54 12 76 76 S 7 11 30.06 1018 10 16.0934 0 0
1:55 am 01:55 Clear 60 15.6 54 12 79 79 S 6 9 30.06 1018 10 16.0934 0 0
2:15 am 02:15 Clear 60 15.5 54 12 80 80 S 7 11 30.05 1018 10 16.0934 0 0
2:35 am 02:35 Clear 59 14.8 53 11.7 82 82 S 5 7 30.07 1018 10 16.0934 0 0
2:55 am 02:55 Clear 57 14.1 53 11.6 85 85 S 5 7 30.08 1019 10 16.0934 0 0
3:15 am 03:15 Clear 57 13.8 53 11.5 86 86 S 6 9 30.07 1018 10 16.0934 0 0
3:35 am 03:35 Clear 56 13.5 53 11.5 88 88 S 5 7 30.07 1018 10 16.0934 0 0
3:55 am 03:55 Clear 56 13.5 53 11.5 88 88 S 5 7 30.07 1018 10 16.0934 0 0
4:15 am 04:15 Clear 55 12.8 52 11 89 89 SSE 3 6 30.08 1019 10 16.0934 0 0
4:35 am 04:35 Clear 55 12.8 52 11.2 90 90 S 7 11 30.08 1019 10 16.0934 0 0
4:55 am 04:55 Clear 55 12.6 52 11.1 91 91 S 3 6 30.08 1019 10 16.0934 0 0
5:15 am 05:15 Clear 54 12.1 52 10.9 92 92 S 5 7 30.08 1019 10 16.0934 0 0
5:35 am 05:35 Clear 55 12.5 52 11.1 91 91 S 6 9 30.09 1019 10 16.0934 0 0
5:55 am 05:55 Clear 54 12.1 51 10.7 91 91 S 5 7 30.08 1019 10 16.0934 0 0
6:15 am 06:15 Clear 54 12 51 10.7 92 92 S 5 7 30.09 1019 10 16.0934 0 0
6:35 am 06:35 Clear 54 12 51 10.8 92 92 S 5 7 30.09 1019 10 16.0934 0 0
6:55 am 06:55 Clear 54 12 51 10.7 92 92 S 3 6 30.09 1019 10 16.0934 0 0
7:15 am 07:15 Clear 54 12 51 10.7 92 92 S 3 6 30.09 1019 10 16.0934 0 0
7:35 am 07:35 Sunny 53 11.7 51 10.6 93 93 S 5 7 30.09 1019 10 16.0934 0 0
7:55 am 07:55 Sunny 54 12.1 52 11 93 93 S 6 9 30.11 1020 7 11.26538 0 0
8:15 am 08:15 Sunny 55 12.7 53 11.4 92 92 S 5 7 30.11 1020 7 11.26538 0 0
8:35 am 08:35 Sunny 56 13.5 54 12 91 91 S 7 11 30.1 1019 7 11.26538 0 0
8:55 am 08:55 Sunny 58 14.2 54 12.3 88 88 S 8 13 30.1 1019 10 16.0934 0 0
9:15 am 09:15 Sunny 59 15 55 12.6 86 86 S 6 9 30.09 1019 10 16.0934 0 0
9:35 am 09:35 Sunny 60 15.8 55 13 84 84 S 5 7 30.07 1018 10 16.0934 0 0
9:55 am 09:55 Sunny 63 17.4 56 13.2 77 77 S 9 15 30.07 1018 10 16.0934 0 0
10:15 am 10:15 Sunny 65 18.3 55 13 71 71 SSW 8 13 30.06 1018 10 16.0934 0 0
10:35 am 10:35 Sunny 67 19.2 56 13.1 68 68 SSW 7 11 30.05 1018 10 16.0934 0 0
10:55 am 10:55 Sunny 68 20.2 55 13 63 63 S 8 13 30.05 1017 10 16.0934 0 0
11:15 am 11:15 Sunny 70 21.2 55 13 60 60 S 9 15 30.04 1017 10 16.0934 0 0
11:35 am 11:35 Sunny 72 22.2 55 12.6 55 55 S 8 13 30.02 1017 10 16.0934 0 0
11:55 am 11:55 Sunny 73 23 54 12.4 51 51 S 9 15 30.01 1016 10 16.0934 0 0
12:15 pm 12:15 Sunny 75 24.1 54 12.4 48 48 S 9 15 29.99 1016 10 16.0934 0 0
12:35 pm 12:35 Sunny 77 24.8 54 12.3 46 46 S 9 15 29.99 1015 10 16.0934 0 0
12:55 pm 12:55 Sunny 78 25.6 54 12 43 43 SSE 12 19 29.97 1015 10 16.0934 0 0
1:15 pm 13:15 Sunny 79 26.1 53 11.6 40 40 S 12 19 29.96 1014 10 16.0934 0 0
1:35 pm 13:35 Sunny 81 27 51 10.7 36 36 S 10 17 29.94 1014 10 16.0934 0 0
1:55 pm 13:55 Sunny 81 27.1 51 10.6 36 36 S 13 20 29.94 1014 10 16.0934 0 0
2:15 pm 14:15 Sunny 82 27.5 49 9.7 33 33 S 15 24 29.93 1013 10 16.0934 0 0
2:35 pm 14:35 Sunny 82 27.8 50 10 33 33 S 12 19 29.91 1013 10 16.0934 0 0
2:55 pm 14:55 Sunny 82 27.8 50 10.1 33 33 S 10 17 29.9 1013 10 16.0934 0 0
3:15 pm 15:15 Sunny 83 28.1 51 10.4 33 33 S 14 22 29.89 1012 10 16.0934 0 0
3:35 pm 15:35 Sunny 83 28.4 50 10.2 32 32 S 14 22 29.9 1013 10 16.0934 0 0
3:55 pm 15:55 Sunny 83 28.5 49 9.6 31 31 S 13 20 29.89 1012 10 16.0934 0 0
4:15 pm 16:15 Sunny 83 28.2 49 9.7 31 31 S 16 26 29.88 1012 10 16.0934 0 0
4:35 pm 16:35 Sunny 83 28.2 49 9.5 31 31 S 13 20 29.87 1012 10 16.0934 0 0
4:55 pm 16:55 Sunny 83 28.1 49 9.4 31 31 S 12 19 29.87 1012 10 16.0934 0 0
5:15 pm 17:15 Sunny 82 28 48 8.7 30 30 S 12 19 29.87 1012 10 16.0934 0 0
5:35 pm 17:35 Sunny 82 27.6 48 8.9 31 31 S 10 17 29.88 1012 10 16.0934 0 0
5:55 pm 17:55 Sunny 81 27.2 49 9.3 32 32 S 12 19 29.87 1011 10 16.0934 0 0
6:15 pm 18:15 Sunny 80 26.7 49 9.6 34 34 S 9 15 29.87 1012 10 16.0934 0 0
6:35 pm 18:35 Sunny 79 26 49 9.7 36 36 S 9 15 29.88 1012 10 16.0934 0 0
6:55 pm 18:55 Sunny 77 24.9 49 9.6 38 38 SSE 7 11 29.89 1012 10 16.0934 0 0
7:15 pm 19:15 Sunny 74 23.5 50 10 43 43 SSE 6 9 29.9 1012 10 16.0934 0 0
7:35 pm 19:35 Clear 71 21.8 51 10.5 49 49 SSE 6 9 29.91 1013 10 16.0934 0 0
7:55 pm 19:55 Clear 69 20.5 51 10.5 53 53 S 5 7 29.92 1013 10 16.0934 0 0
8:15 pm 20:15 Clear 67 19.2 50 10.2 56 56 S 6 9 29.94 1014 10 16.0934 0 0
8:35 pm 20:35 Clear 66 18.9 50 10.1 57 57 SSE 6 9 29.95 1014 10 16.0934 0 0
8:55 pm 20:55 Clear 65 18.5 51 10.4 59 59 S 6 9 29.95 1014 10 16.0934 0 0
9:15 pm 21:15 Clear 64 17.8 51 10.5 63 63 S 5 7 29.97 1015 10 16.0934 0 0
9:35 pm 21:35 Clear 64 17.6 51 10.5 63 63 S 8 13 29.97 1015 10 16.0934 0 0
9:55 pm 21:55 Clear 64 17.5 51 10.7 65 65 S 7 11 29.97 1015 10 16.0934 0 0
10:15 pm 22:15 Clear 62 16.5 52 11 70 70 S 6 9 29.98 1015 10 16.0934 0 0
10:35 pm 22:35 Clear 61 15.9 52 11.1 73 73 S 5 7 29.98 1015 10 16.0934 0 0
10:55 pm 22:55 Clear 60 15.7 52 11.1 74 74 SSE 5 7 29.99 1016 10 16.0934 0 0
11:15 pm 23:15 Clear 60 15.7 53 11.5 76 76 S 6 9 29.99 1016 10 16.0934 0 0
11:35 pm 23:35 Clear 61 15.9 54 12.1 78 78 S 7 11 29.99 1016 10 16.0934 0 0
11:55 pm 23:55 Clear 60 15.8 55 12.6 81 81 S 8 13 29.99 1016 10 16.0934 0 0

Powered by AerisWeather